ISS DEB (52952 NORAD) Tracking and Keplerian Element Data

This shows tracking and keplerian element data for the satellite.

Feedback or suggestion? Click here.




ElementValue
Catalog52952
NameISS DEB
Epoch Orbit1331
Epoch Day269.49503186
Epoch Year2022
RAAN192.0064
Inclination51.6402
Eccentricity0.0001495
Argument of Perigee219.8628
Mean Anonmoly140.2255
Mean Motion15.59491934
Decay Rate0.0007922
L11 52952U 98067TP 22269.49503186 .00079220 00000+0 97657-3 0 9996
L22 52952 51.6402 192.0064 0001495 219.8628 140.2255 15.59491934 13317

Live tracking and technical data element details for ISS DEB (NORAD 52952). ISS DEB can be tracked NOW for your location showing map with azimuth and elevation plus other details from your city location.

Track the satellite on the map from your city or location and see movement details for azimuth, elevation, latitude, longitude, range, height, and movement on the map or in text.







IsCatalogInMostPopularTable: catalog: 52952, numindb: 62
Update: records affected: 1



GetName: 52952 ISS DEB

Hit Count: updated at: Thu, 06 Oct 2022 03:21:47 GMT